Miscellaneous Local Product
Issued by NWS Hastings, NE

Home | Current Version | Previous Version | Text Only | Print | Product List | Glossary On
Versions: 1 2 3 4 5 6 7 8 9 10 11 12 13 14 15 16 17 18 19 20 21 22 23 24 25 26 27 28 29 30 31 32 33 34 35 36 37 38 39 40 41 42 43 44 45 46 47 48 49 50
601
AXUS43 KGID 271402
MISGRI

GID CWA HOURLY WEATHER ROUNDUP
NATIONAL WEATHER SERVICE HASTINGS NE
900 AM CDT TUE SEP 27 2016

NOTE: "FAIR" INDICATES FEW OR NO CLOUDS BELOW 12,000 FEET WITH NO
SIGNIFICANT WEATHER AND/OR OBSTRUCTIONS TO VISIBILITY.

...SOUTH CENTRAL NEBRASKA...

CITY           SKY/WX    TMP DP  RH WIND       PRES   REMARKS
GRAND ISLAND   SUNNY     54  45  71 N7        30.08S
HASTINGS       SUNNY     56  44  64 NW8       30.09S
KEARNEY        SUNNY     52  41  66 W5        30.10R
ORD            SUNNY     48  42  80 NW3       30.09S
YORK           SUNNY     54  46  76 NW6       30.07S
AURORA         SUNNY     53  46  77 NW8       30.07F
LEXINGTON      SUNNY     49  44  80 NW6       30.12S
HOLDREGE       SUNNY     53  44  71 NW5       30.10F
HEBRON         SUNNY     53  47  80 CALM      30.07S

...NEBRASKA PANHANDLE...

CITY           SKY/WX    TMP DP  RH WIND       PRES   REMARKS
CHADRON        SUNNY     45  42  89 W8        30.12F
ALLIANCE       SUNNY     43  41  93 W6        30.15F
SCOTTSBLUFF    CLOUDY    43  40  89 NW6       30.18S
SIDNEY         SUNNY     49  42  77 NW7       30.20R

...WESTERN AND NORTH CENTRAL NEBRASKA...

CITY           SKY/WX    TMP DP  RH WIND       PRES   REMARKS
VALENTINE      SUNNY     49  40  71 SW9       30.10S
AINSWORTH      SUNNY     51  45  77 W3        30.10S
ONEILL         SUNNY     51  43  73 W3        30.07S
BROKEN BOW     SUNNY     51  44  77 CALM      30.10S
IMPERIAL       SUNNY     51  41  68 N6        30.16F
NORTH PLATTE   SUNNY     47  43  86 NW3       30.14F
MCCOOK         SUNNY     50  43  77 W6        30.14R HAZE

...EASTERN NEBRASKA...

CITY           SKY/WX    TMP DP  RH WIND       PRES   REMARKS
NORFOLK        SUNNY     51  43  74 W6        30.05S
SO SIOUX CITY  SUNNY     54  46  74 CALM      30.03S
TEKAMAH        SUNNY     55  45  68 CALM      30.03S
COLUMBUS       SUNNY     52  39  62 W5        30.06S
ALBION         SUNNY     49  44  81 NW5       30.08R
OMAHA EPPLEY   MOSUNNY   57  48  72 CALM      30.04S
OFFUTT AFB     SUNNY     56  50  81 W5        30.03S
MILLARD        SUNNY     56  49  77 W3        30.03F
LINCOLN        SUNNY     54  48  80 CALM      30.06S
NEBRASKA CITY  SUNNY     58  38  48 N6        30.04R
BEATRICE       SUNNY     53  48  84 W3        30.05S
FALLS CITY     SUNNY     56  49  77 W8        30.03S

...NORTHERN KANSAS...

CITY           SKY/WX    TMP DP  RH WIND       PRES   REMARKS
GOODLAND       SUNNY     55  42  61 W6        30.18R
HILL CITY      SUNNY     54  47  77 NW3       30.12S
NORTON         SUNNY     54  41  62 W7        30.12R
PHILLIPSBURG   SUNNY     55  45  67 W9        30.10F
SMITH CENTER   SUNNY     52  46  82 CALM      30.10S
HAYS           SUNNY     55  39  54 NW8       30.11R
RUSSELL        SUNNY     55  47  74 W5        30.09R
CONCORDIA      SUNNY     58  50  75 W10       30.06S
SALINA         SUNNY     57  47  69 SW5       30.08S
TOPEKA         SUNNY     59  51  75 SW3       30.05F



USA.gov is the U.S. government's official web portal to all federal, state and local government web resources and services.